date,time,SUV Intensity [MED/Hr],UV Index,Daily total [MED],Since Last [MED]
26/06/2023,23:58:16,0.000,0.0,9.332,9.332
26/06/2023,23:59:15,0.000,0.0,9.332,0.0
27/06/2023,00:00:16,0.000,0.0,0.0,-9.332
27/06/2023,00:01:15,0.000,0.0,0.0,0.0
27/06/2023,00:02:16,0.000,0.0,0.0,0.0
27/06/2023,00:03:16,0.001,0.0,0.0,0.0
27/06/2023,00:04:16,-0.000,0.0,0.0,0.0
27/06/2023,00:05:15,-0.000,0.0,0.0,0.0
27/06/2023,00:06:16,-0.000,0.0,0.0,0.0
27/06/2023,00:07:16,-0.000,0.0,0.0,0.0
27/06/2023,00:08:15,0.001,0.0,0.0,0.0
27/06/2023,00:09:15,0.000,0.0,0.0,0.0
27/06/2023,00:10:16,0.000,0.0,0.0,0.0
27/06/2023,00:11:16,0.000,0.0,0.0,0.0
27/06/2023,00:12:16,-0.000,0.0,0.0,0.0
27/06/2023,00:13:16,0.000,0.0,0.0,0.0
27/06/2023,00:14:16,0.000,0.0,0.0,0.0
27/06/2023,00:15:16,0.000,0.0,0.0,0.0
27/06/2023,00:16:16,0.000,0.0,0.0,0.0
27/06/2023,00:17:16,0.000,0.0,0.0,0.0
27/06/2023,00:18:16,0.000,0.0,0.0,0.0
27/06/2023,00:19:16,-0.000,0.0,0.0,0.0
27/06/2023,00:20:15,0.000,0.0,0.0,0.0
27/06/2023,00:21:45,0.000,0.0,0.0,0.0
27/06/2023,00:23:16,-0.000,0.0,0.0,0.0
27/06/2023,00:24:16,0.000,0.0,0.0,0.0
27/06/2023,00:25:16,0.000,0.0,0.0,0.0
27/06/2023,00:26:15,-0.000,0.0,0.0,0.0
27/06/2023,00:27:16,0.000,0.0,0.0,0.0
27/06/2023,00:28:16,0.000,0.0,0.0,0.0
27/06/2023,00:29:16,0.000,0.0,0.0,0.0
27/06/2023,00:30:19,0.000,0.0,0.0,0.0
27/06/2023,00:31:17,-0.000,0.0,0.0,0.0
27/06/2023,00:32:16,0.000,0.0,0.0,0.0
27/06/2023,00:33:16,-0.000,0.0,0.0,0.0
27/06/2023,00:34:15,0.000,0.0,0.0,0.0
27/06/2023,00:35:16,-0.000,0.0,0.0,0.0
27/06/2023,00:36:15,0.000,0.0,0.0,0.0
27/06/2023,00:37:16,-0.000,0.0,0.0,0.0
27/06/2023,00:38:16,0.000,0.0,0.0,0.0
27/06/2023,00:39:16,0.000,0.0,0.0,0.0
27/06/2023,00:40:15,-0.000,0.0,0.0,0.0
27/06/2023,00:41:15,0.000,0.0,0.0,0.0
27/06/2023,00:42:16,0.000,0.0,0.0,0.0
27/06/2023,00:43:16,0.000,0.0,0.0,0.0
27/06/2023,00:44:16,0.000,0.0,0.0,0.0
27/06/2023,00:45:16,0.000,0.0,0.0,0.0
27/06/2023,00:46:16,-0.000,0.0,0.0,0.0
27/06/2023,00:47:16,0.000,0.0,0.0,0.0
27/06/2023,00:48:16,0.000,0.0,0.0,0.0
27/06/2023,00:49:16,-0.000,0.0,0.0,0.0
27/06/2023,00:50:16,0.000,0.0,0.0,0.0
27/06/2023,00:51:16,0.000,0.0,0.0,0.0
27/06/2023,00:52:16,0.000,0.0,0.0,0.0
27/06/2023,00:53:16,0.000,0.0,0.0,0.0
27/06/2023,00:54:16,0.000,0.0,0.0,0.0
27/06/2023,00:55:15,0.000,0.0,0.0,0.0
27/06/2023,00:56:16,0.000,0.0,0.0,0.0
27/06/2023,00:57:15,0.000,0.0,0.0,0.0
27/06/2023,00:58:16,-0.000,0.0,0.0,0.0
27/06/2023,00:59:16,0.000,0.0,0.0,0.0
27/06/2023,01:00:16,0.000,0.0,0.0,0.0
27/06/2023,01:01:16,-0.000,0.0,0.0,0.0
27/06/2023,01:02:15,0.000,0.0,0.0,0.0
27/06/2023,01:03:16,0.000,0.0,0.0,0.0
27/06/2023,01:04:16,-0.000,0.0,0.0,0.0
27/06/2023,01:05:16,-0.000,0.0,0.0,0.0
27/06/2023,01:06:16,0.000,0.0,0.0,0.0
27/06/2023,01:07:16,0.000,0.0,0.0,0.0
27/06/2023,01:08:15,0.000,0.0,0.0,0.0
27/06/2023,01:09:16,0.000,0.0,0.0,0.0
27/06/2023,01:10:16,-0.000,0.0,0.0,0.0
27/06/2023,01:11:16,0.000,0.0,0.0,0.0
27/06/2023,01:12:16,0.000,0.0,0.0,0.0
27/06/2023,01:13:16,0.000,0.0,0.0,0.0
27/06/2023,01:14:16,0.000,0.0,0.0,0.0
27/06/2023,01:15:16,-0.000,0.0,0.0,0.0
27/06/2023,01:16:16,0.000,0.0,0.0,0.0
27/06/2023,01:17:16,0.000,0.0,0.0,0.0
27/06/2023,01:18:16,0.000,0.0,0.0,0.0
27/06/2023,01:19:16,0.000,0.0,0.0,0.0
27/06/2023,01:20:15,-0.000,0.0,0.0,0.0
27/06/2023,01:21:16,0.000,0.0,0.0,0.0
27/06/2023,01:22:16,0.000,0.0,0.0,0.0
27/06/2023,01:23:16,0.000,0.0,0.0,0.0
27/06/2023,01:24:16,0.000,0.0,0.0,0.0
27/06/2023,01:25:16,-0.000,0.0,0.0,0.0
27/06/2023,01:26:16,-0.000,0.0,0.0,0.0
27/06/2023,01:27:15,-0.000,0.0,0.0,0.0
27/06/2023,01:28:16,0.000,0.0,0.0,0.0
27/06/2023,01:29:16,0.000,0.0,0.0,0.0
27/06/2023,01:30:15,-0.000,0.0,0.0,0.0
27/06/2023,01:31:16,-0.000,0.0,0.0,0.0
27/06/2023,01:32:16,0.000,0.0,0.0,0.0
27/06/2023,01:33:16,0.000,0.0,0.0,0.0
27/06/2023,01:34:16,0.000,0.0,0.0,0.0
27/06/2023,01:35:16,-0.000,0.0,0.0,0.0
27/06/2023,01:36:16,0.001,0.0,0.0,0.0
27/06/2023,01:37:16,0.000,0.0,0.0,0.0
27/06/2023,01:38:16,0.000,0.0,0.0,0.0
27/06/2023,01:39:16,0.000,0.0,0.0,0.0
27/06/2023,01:40:16,0.000,0.0,0.0,0.0
27/06/2023,01:41:16,0.001,0.0,0.0,0.0
27/06/2023,01:42:15,0.000,0.0,0.0,0.0
27/06/2023,01:43:16,-0.000,0.0,0.0,0.0
27/06/2023,01:44:16,0.000,0.0,0.0,0.0
27/06/2023,01:45:16,0.000,0.0,0.0,0.0
27/06/2023,01:46:16,0.000,0.0,0.0,0.0
27/06/2023,01:47:16,-0.000,0.0,0.0,0.0
27/06/2023,01:48:16,-0.000,0.0,0.0,0.0
27/06/2023,01:49:16,-0.000,0.0,0.0,0.0
27/06/2023,01:50:16,0.000,0.0,0.0,0.0
27/06/2023,01:51:16,0.000,0.0,0.0,0.0
27/06/2023,01:52:16,0.000,0.0,0.0,0.0
27/06/2023,01:53:16,0.000,0.0,0.0,0.0
27/06/2023,01:54:16,-0.000,0.0,0.0,0.0
27/06/2023,01:55:16,-0.000,0.0,0.0,0.0
27/06/2023,01:56:16,0.000,0.0,0.0,0.0
27/06/2023,01:57:16,0.000,0.0,0.0,0.0
27/06/2023,01:58:16,0.000,0.0,0.0,0.0
27/06/2023,01:59:16,-0.000,0.0,0.0,0.0
27/06/2023,02:00:16,-0.000,0.0,0.0,0.0
27/06/2023,02:01:16,0.000,0.0,0.0,0.0
27/06/2023,02:02:16,0.000,0.0,0.0,0.0
27/06/2023,02:03:16,0.000,0.0,0.0,0.0
27/06/2023,02:04:16,-0.000,0.0,0.0,0.0
27/06/2023,02:05:16,0.000,0.0,0.0,0.0
27/06/2023,02:06:16,-0.000,0.0,0.0,0.0
27/06/2023,02:07:16,0.000,0.0,0.0,0.0
27/06/2023,02:08:16,0.001,0.0,0.0,0.0
27/06/2023,02:09:16,-0.000,0.0,0.0,0.0
27/06/2023,02:10:16,0.000,0.0,0.0,0.0
27/06/2023,02:11:16,0.000,0.0,0.0,0.0
27/06/2023,02:12:16,0.000,0.0,0.0,0.0
27/06/2023,02:13:16,0.000,0.0,0.0,0.0
27/06/2023,02:14:16,0.000,0.0,0.0,0.0
27/06/2023,02:15:15,0.001,0.0,0.0,0.0
27/06/2023,02:16:16,-0.000,0.0,0.0,0.0
27/06/2023,02:17:15,0.000,0.0,0.0,0.0
27/06/2023,02:18:16,0.000,0.0,0.0,0.0
27/06/2023,02:19:16,-0.000,0.0,0.0,0.0
27/06/2023,02:20:15,0.000,0.0,0.0,0.0
27/06/2023,02:21:16,0.000,0.0,0.0,0.0
27/06/2023,02:22:16,-0.000,0.0,0.0,0.0
27/06/2023,02:23:16,0.000,0.0,0.0,0.0
27/06/2023,02:24:16,0.000,0.0,0.0,0.0
27/06/2023,02:25:16,0.000,0.0,0.0,0.0
27/06/2023,02:26:16,0.000,0.0,0.0,0.0
27/06/2023,02:27:16,0.000,0.0,0.0,0.0
27/06/2023,02:28:16,0.001,0.0,0.0,0.0
27/06/2023,02:29:16,-0.000,0.0,0.0,0.0
27/06/2023,02:30:16,0.000,0.0,0.0,0.0
27/06/2023,02:31:16,0.000,0.0,0.0,0.0
27/06/2023,02:32:16,0.000,0.0,0.0,0.0
27/06/2023,02:33:16,0.000,0.0,0.0,0.0
27/06/2023,02:34:15,-0.000,0.0,0.0,0.0
27/06/2023,02:35:16,0.000,0.0,0.0,0.0
27/06/2023,02:36:16,0.000,0.0,0.0,0.0
27/06/2023,02:37:16,0.001,0.0,0.0,0.0
27/06/2023,02:38:16,-0.000,0.0,0.0,0.0
27/06/2023,02:39:16,0.000,0.0,0.0,0.0
27/06/2023,02:40:16,0.000,0.0,0.0,0.0
27/06/2023,02:41:16,0.000,0.0,0.0,0.0
27/06/2023,02:42:15,-0.000,0.0,0.0,0.0
27/06/2023,02:43:16,0.000,0.0,0.0,0.0
27/06/2023,02:44:16,0.000,0.0,0.0,0.0
27/06/2023,02:45:16,0.001,0.0,0.0,0.0
27/06/2023,02:46:16,0.000,0.0,0.0,0.0
27/06/2023,02:47:16,0.000,0.0,0.0,0.0
27/06/2023,02:48:16,0.000,0.0,0.0,0.0
27/06/2023,02:49:16,-0.000,0.0,0.0,0.0
27/06/2023,02:50:16,-0.000,0.0,0.0,0.0
27/06/2023,02:51:16,0.000,0.0,0.0,0.0
27/06/2023,02:52:16,0.000,0.0,0.0,0.0
27/06/2023,02:53:16,0.000,0.0,0.0,0.0
27/06/2023,02:54:16,0.000,0.0,0.0,0.0
27/06/2023,02:55:16,-0.000,0.0,0.0,0.0
27/06/2023,02:56:15,-0.000,0.0,0.0,0.0
27/06/2023,02:57:16,-0.000,0.0,0.0,0.0
27/06/2023,02:58:16,0.000,0.0,0.0,0.0
27/06/2023,02:59:16,0.000,0.0,0.0,0.0
27/06/2023,03:00:16,-0.000,0.0,0.0,0.0
27/06/2023,03:01:16,0.000,0.0,0.0,0.0
27/06/2023,03:02:16,0.000,0.0,0.0,0.0
27/06/2023,03:03:16,0.000,0.0,0.0,0.0
27/06/2023,03:04:16,0.000,0.0,0.0,0.0
27/06/2023,03:05:16,0.000,0.0,0.0,0.0
27/06/2023,03:06:16,-0.000,0.0,0.0,0.0
27/06/2023,03:07:16,0.000,0.0,0.0,0.0
27/06/2023,03:08:16,0.000,0.0,0.0,0.0
27/06/2023,03:09:16,0.000,0.0,0.0,0.0
27/06/2023,03:10:16,0.000,0.0,0.0,0.0
27/06/2023,03:11:16,0.000,0.0,0.0,0.0
27/06/2023,03:12:16,0.001,0.0,0.0,0.0
27/06/2023,03:13:16,0.000,0.0,0.0,0.0
27/06/2023,03:14:16,-0.000,0.0,0.0,0.0
27/06/2023,03:15:16,0.000,0.0,0.0,0.0
27/06/2023,03:16:16,-0.000,0.0,0.0,0.0
27/06/2023,03:17:16,-0.000,0.0,0.0,0.0
27/06/2023,03:18:16,0.000,0.0,0.0,0.0
27/06/2023,03:19:16,0.000,0.0,0.0,0.0
27/06/2023,03:20:16,0.001,0.0,0.0,0.0
27/06/2023,03:21:16,0.000,0.0,0.0,0.0
27/06/2023,03:22:16,0.001,0.0,0.0,0.0
27/06/2023,03:23:16,0.000,0.0,0.0,0.0
27/06/2023,03:24:16,0.000,0.0,0.0,0.0
27/06/2023,03:25:16,0.000,0.0,0.0,0.0
27/06/2023,03:26:16,-0.000,0.0,0.0,0.0
27/06/2023,03:27:16,0.000,0.0,0.0,0.0
27/06/2023,03:28:16,0.000,0.0,0.0,0.0
27/06/2023,03:29:16,0.001,0.0,0.0,0.0
27/06/2023,03:30:16,0.000,0.0,0.0,0.0
27/06/2023,03:31:16,0.001,0.0,0.0,0.0
27/06/2023,03:32:16,0.001,0.0,0.0,0.0
27/06/2023,03:33:16,0.001,0.0,0.0,0.0
27/06/2023,03:34:16,0.001,0.0,0.0,0.0
27/06/2023,03:35:16,0.001,0.0,0.0,0.0
27/06/2023,03:36:16,0.001,0.0,0.0,0.0
27/06/2023,03:37:16,0.001,0.0,0.0,0.0
27/06/2023,03:38:16,0.001,0.0,0.0,0.0
27/06/2023,03:39:16,0.001,0.0,0.0,0.0
27/06/2023,03:40:16,0.001,0.0,0.0,0.0
27/06/2023,03:41:16,0.002,0.0,0.0,0.0
27/06/2023,03:42:16,0.001,0.0,0.0,0.0
27/06/2023,03:43:16,0.002,0.0,0.0,0.0
27/06/2023,03:44:16,0.002,0.0,0.0,0.0
27/06/2023,03:45:16,0.002,0.0,0.0,0.0
27/06/2023,03:46:16,0.002,0.0,0.0,0.0
27/06/2023,03:47:16,0.002,0.0,0.0,0.0
27/06/2023,03:48:17,0.002,0.0,0.0,0.0
27/06/2023,03:49:16,0.002,0.0,0.0,0.0
27/06/2023,03:50:16,0.002,0.0,0.0,0.0
27/06/2023,03:51:16,0.002,0.0,0.0,0.0
27/06/2023,03:52:16,0.002,0.0,0.0,0.0
27/06/2023,03:53:16,0.002,0.0,0.0,0.0
27/06/2023,03:54:16,0.002,0.0,0.0,0.0
27/06/2023,03:55:16,0.003,0.0,0.0,0.0
27/06/2023,03:56:17,0.003,0.0,0.0,0.0
27/06/2023,03:57:16,0.003,0.0,0.0,0.0
27/06/2023,03:58:16,0.004,0.0,0.0,0.0
27/06/2023,03:59:16,0.004,0.0,0.0,0.0
27/06/2023,04:00:16,0.004,0.0,0.0,0.0
27/06/2023,04:01:16,0.004,0.0,0.0,0.0
27/06/2023,04:02:14,0.004,0.0,0.0,0.0
27/06/2023,04:03:16,0.004,0.0,0.0,0.0
27/06/2023,04:04:16,0.004,0.0,0.0,0.0
27/06/2023,04:05:17,0.004,0.0,0.0,0.0
27/06/2023,04:06:16,0.005,0.0,0.0,0.0
27/06/2023,04:07:16,0.006,0.0,0.0,0.0
27/06/2023,04:08:16,0.005,0.0,0.0,0.0
27/06/2023,04:09:16,0.005,0.0,0.0,0.0
27/06/2023,04:10:16,0.005,0.0,0.0,0.0
27/06/2023,04:11:16,0.006,0.0,0.0,0.0
27/06/2023,04:12:16,0.006,0.0,0.0,0.0
27/06/2023,04:13:16,0.007,0.0,0.0,0.0
27/06/2023,04:14:16,0.006,0.0,0.0,0.0
27/06/2023,04:15:16,0.006,0.0,0.0,0.0
27/06/2023,04:16:16,0.008,0.0,0.0,0.0
27/06/2023,04:17:16,0.008,0.0,0.001,0.001
27/06/2023,04:18:16,0.008,0.0,0.001,0.0
27/06/2023,04:19:17,0.008,0.0,0.001,0.0
27/06/2023,04:20:16,0.009,0.0,0.001,0.0
27/06/2023,04:21:16,0.010,0.0,0.001,0.0
27/06/2023,04:22:16,0.009,0.0,0.001,0.0
27/06/2023,04:23:16,0.009,0.0,0.001,0.0
27/06/2023,04:24:16,0.009,0.0,0.002,0.001
27/06/2023,04:25:16,0.011,0.0,0.002,0.0
27/06/2023,04:26:17,0.011,0.0,0.002,0.0
27/06/2023,04:27:16,0.011,0.0,0.002,0.0
27/06/2023,04:28:16,0.012,0.0,0.002,0.0
27/06/2023,04:29:16,0.012,0.0,0.003,0.001
27/06/2023,04:30:17,0.012,0.0,0.003,0.0
27/06/2023,04:31:16,0.013,0.0,0.003,0.0
27/06/2023,04:32:16,0.013,0.0,0.003,0.0
27/06/2023,04:33:17,0.013,0.0,0.003,0.0
27/06/2023,04:34:16,0.014,0.0,0.004,0.001
27/06/2023,04:35:16,0.015,0.0,0.004,0.0
27/06/2023,04:36:16,0.015,0.0,0.004,0.0
27/06/2023,04:37:17,0.016,0.0,0.004,0.0
27/06/2023,04:38:16,0.016,0.0,0.005,0.001
27/06/2023,04:39:18,0.016,0.0,0.005,0.0
27/06/2023,04:40:17,0.016,0.0,0.005,0.0
27/06/2023,04:41:16,0.017,0.0,0.005,0.0
27/06/2023,04:42:16,0.017,0.0,0.006,0.001
27/06/2023,04:43:16,0.017,0.0,0.006,0.0
27/06/2023,04:44:16,0.015,0.0,0.006,0.0
27/06/2023,04:45:16,0.017,0.0,0.006,0.0
27/06/2023,04:46:16,0.016,0.0,0.007,0.001
27/06/2023,04:47:17,0.017,0.0,0.007,0.0
27/06/2023,04:48:16,0.018,0.0,0.007,0.0
27/06/2023,04:49:16,0.019,0.0,0.008,0.001
27/06/2023,04:50:16,0.021,0.0,0.008,0.0
27/06/2023,04:51:16,0.020,0.0,0.008,0.0
27/06/2023,04:52:16,0.021,0.0,0.009,0.001
27/06/2023,04:53:16,0.021,0.0,0.009,0.0
27/06/2023,04:54:17,0.021,0.0,0.009,0.0
27/06/2023,04:55:16,0.021,0.0,0.01,0.001
27/06/2023,04:56:17,0.021,0.0,0.01,0.0
27/06/2023,04:57:16,0.020,0.0,0.01,0.0
27/06/2023,04:58:16,0.020,0.0,0.011,0.001
27/06/2023,04:59:16,0.018,0.0,0.011,0.0
27/06/2023,05:00:16,0.020,0.0,0.011,0.0
27/06/2023,05:01:16,0.020,0.0,0.012,0.001
27/06/2023,05:02:16,0.019,0.0,0.012,0.0
27/06/2023,05:03:17,0.019,0.0,0.012,0.0
27/06/2023,05:04:16,0.019,0.0,0.013,0.001
27/06/2023,05:05:17,0.019,0.0,0.013,0.0
27/06/2023,05:06:16,0.019,0.0,0.013,0.0
27/06/2023,05:07:17,0.019,0.0,0.014,0.001
27/06/2023,05:08:16,0.019,0.0,0.014,0.0
27/06/2023,05:09:16,0.018,0.0,0.014,0.0
27/06/2023,05:10:16,0.017,0.0,0.014,0.0
27/06/2023,05:11:16,0.017,0.0,0.015,0.001
27/06/2023,05:12:17,0.017,0.0,0.015,0.0
27/06/2023,05:13:16,0.017,0.0,0.015,0.0
27/06/2023,05:14:17,0.017,0.0,0.016,0.001
27/06/2023,05:15:16,0.017,0.0,0.016,0.0
27/06/2023,05:16:17,0.017,0.0,0.016,0.0
27/06/2023,05:17:16,0.018,0.0,0.016,0.0
27/06/2023,05:18:16,0.018,0.0,0.017,0.001
27/06/2023,05:19:16,0.019,0.0,0.017,0.0
27/06/2023,05:20:16,0.019,0.0,0.017,0.0
27/06/2023,05:21:16,0.019,0.0,0.018,0.001
27/06/2023,05:22:16,0.021,0.0,0.018,0.0
27/06/2023,05:23:16,0.020,0.0,0.018,0.0
27/06/2023,05:24:15,0.020,0.0,0.019,0.001
27/06/2023,05:25:17,0.021,0.0,0.019,0.0
27/06/2023,05:26:16,0.021,0.0,0.019,0.0
27/06/2023,05:27:16,0.023,0.0,0.02,0.001
27/06/2023,05:28:16,0.022,0.0,0.02,0.0
27/06/2023,05:29:16,0.023,0.0,0.02,0.0
27/06/2023,05:30:17,0.025,0.0,0.021,0.001
27/06/2023,05:31:16,0.025,0.0,0.021,0.0
27/06/2023,05:32:16,0.028,0.0,0.022,0.001
27/06/2023,05:33:16,0.029,0.0,0.022,0.0
27/06/2023,05:34:16,0.031,0.0,0.023,0.001
27/06/2023,05:35:17,0.032,0.0,0.023,0.0
27/06/2023,05:36:16,0.033,0.0,0.024,0.001
27/06/2023,05:37:16,0.034,0.0,0.024,0.0
27/06/2023,05:38:17,0.035,0.0,0.025,0.001
27/06/2023,05:39:16,0.035,0.0,0.025,0.0
27/06/2023,05:40:16,0.036,0.0,0.026,0.001
27/06/2023,05:41:16,0.038,0.0,0.027,0.001
27/06/2023,05:42:16,0.040,0.0,0.027,0.0
27/06/2023,05:43:16,0.044,0.0,0.028,0.001
27/06/2023,05:44:16,0.046,0.0,0.029,0.001
27/06/2023,05:45:16,0.049,0.0,0.03,0.001
27/06/2023,05:46:16,0.054,0.0,0.03,0.0
27/06/2023,05:47:46,0.060,0.0,0.032,0.002
27/06/2023,05:49:17,0.068,0.0,0.033,0.001
27/06/2023,05:50:16,0.072,0.0,0.035,0.002
27/06/2023,05:51:16,0.075,0.0,0.036,0.001
27/06/2023,05:52:17,0.078,0.0,0.037,0.001
27/06/2023,05:53:16,0.081,0.0,0.039,0.002
27/06/2023,05:54:16,0.085,0.0,0.04,0.001
27/06/2023,05:55:16,0.088,0.0,0.041,0.001
27/06/2023,05:56:16,0.092,0.0,0.043,0.002
27/06/2023,05:57:16,0.095,0.0,0.044,0.001
27/06/2023,05:58:16,0.098,0.0,0.046,0.002
27/06/2023,05:59:17,0.100,0.0,0.048,0.002
27/06/2023,06:00:16,0.102,0.0,0.049,0.001
27/06/2023,06:01:16,0.107,0.0,0.051,0.002
27/06/2023,06:02:17,0.110,0.0,0.053,0.002
27/06/2023,06:03:16,0.113,0.0,0.055,0.002
27/06/2023,06:04:16,0.116,0.0,0.057,0.002
27/06/2023,06:05:16,0.117,0.0,0.059,0.002
27/06/2023,06:06:17,0.120,0.0,0.061,0.002
27/06/2023,06:07:17,0.120,0.0,0.063,0.002
27/06/2023,06:08:16,0.121,0.0,0.065,0.002
27/06/2023,06:09:16,0.121,0.0,0.067,0.002
27/06/2023,06:10:16,0.122,0.0,0.069,0.002
27/06/2023,06:11:16,0.122,0.0,0.071,0.002
27/06/2023,06:12:16,0.123,0.0,0.073,0.002
27/06/2023,06:13:16,0.124,0.0,0.075,0.002
27/06/2023,06:14:16,0.125,0.0,0.077,0.002
27/06/2023,06:15:16,0.127,0.0,0.079,0.002
27/06/2023,06:16:16,0.130,0.0,0.081,0.002
27/06/2023,06:17:17,0.131,0.0,0.083,0.002
27/06/2023,06:18:16,0.134,0.0,0.085,0.002
27/06/2023,06:19:16,0.137,0.0,0.088,0.003
27/06/2023,06:20:16,0.141,0.0,0.09,0.002
27/06/2023,06:21:16,0.146,0.0,0.092,0.002
27/06/2023,06:22:17,0.152,0.0,0.095,0.003
27/06/2023,06:23:16,0.158,0.0,0.098,0.003
27/06/2023,06:24:16,0.164,0.0,0.1,0.002
27/06/2023,06:25:16,0.172,0.0,0.103,0.003
27/06/2023,06:26:16,0.181,0.0,0.106,0.003
27/06/2023,06:27:16,0.191,0.0,0.109,0.003
27/06/2023,06:28:16,0.211,0.0,0.112,0.003
27/06/2023,06:29:16,0.217,0.0,0.116,0.004
27/06/2023,06:30:16,0.219,1.0,0.12,0.004
27/06/2023,06:31:17,0.220,1.0,0.123,0.003
27/06/2023,06:32:16,0.228,1.0,0.127,0.004
27/06/2023,06:33:17,0.230,1.0,0.131,0.004
27/06/2023,06:34:16,0.230,1.0,0.135,0.004
27/06/2023,06:35:17,0.219,1.0,0.138,0.003
27/06/2023,06:36:16,0.224,1.0,0.142,0.004
27/06/2023,06:37:16,0.214,0.0,0.146,0.004
27/06/2023,06:38:16,0.207,0.0,0.149,0.003
27/06/2023,06:39:17,0.202,0.0,0.153,0.004
27/06/2023,06:40:16,0.197,0.0,0.156,0.003
27/06/2023,06:41:16,0.196,0.0,0.159,0.003
27/06/2023,06:42:17,0.199,0.0,0.163,0.004
27/06/2023,06:43:16,0.203,0.0,0.166,0.003
27/06/2023,06:44:16,0.210,0.0,0.169,0.003
27/06/2023,06:45:16,0.217,0.0,0.173,0.004
27/06/2023,06:46:17,0.222,1.0,0.177,0.004
27/06/2023,06:47:16,0.227,1.0,0.18,0.003
27/06/2023,06:48:17,0.231,1.0,0.184,0.004
27/06/2023,06:49:16,0.236,1.0,0.188,0.004
27/06/2023,06:50:16,0.241,1.0,0.192,0.004
27/06/2023,06:51:17,0.248,1.0,0.196,0.004
27/06/2023,06:52:17,0.251,1.0,0.2,0.004
27/06/2023,06:53:16,0.241,1.0,0.204,0.004
27/06/2023,06:54:17,0.238,1.0,0.208,0.004
27/06/2023,06:55:16,0.239,1.0,0.212,0.004
27/06/2023,06:56:17,0.243,1.0,0.216,0.004
27/06/2023,06:57:16,0.249,1.0,0.221,0.005
27/06/2023,06:58:17,0.256,1.0,0.225,0.004
27/06/2023,06:59:16,0.264,1.0,0.229,0.004
27/06/2023,07:00:16,0.272,1.0,0.234,0.005
27/06/2023,07:01:16,0.284,1.0,0.238,0.004
27/06/2023,07:02:16,0.298,1.0,0.243,0.005
27/06/2023,07:03:17,0.322,1.0,0.248,0.005
27/06/2023,07:04:16,0.322,1.0,0.254,0.006
27/06/2023,07:05:16,0.320,1.0,0.259,0.005
27/06/2023,07:06:16,0.328,1.0,0.264,0.005
27/06/2023,07:07:16,0.345,1.0,0.27,0.006
27/06/2023,07:08:16,0.326,1.0,0.275,0.005
27/06/2023,07:09:17,0.324,1.0,0.281,0.006
27/06/2023,07:10:16,0.319,1.0,0.286,0.005
27/06/2023,07:11:17,0.321,1.0,0.292,0.006
27/06/2023,07:12:16,0.325,1.0,0.297,0.005
27/06/2023,07:13:17,0.330,1.0,0.302,0.005
27/06/2023,07:14:16,0.335,1.0,0.308,0.006
27/06/2023,07:15:17,0.336,1.0,0.314,0.006
27/06/2023,07:16:16,0.340,1.0,0.319,0.005
27/06/2023,07:17:17,0.345,1.0,0.325,0.006
27/06/2023,07:18:16,0.347,1.0,0.331,0.006
27/06/2023,07:19:16,0.345,1.0,0.336,0.005
27/06/2023,07:20:17,0.340,1.0,0.342,0.006
27/06/2023,07:21:16,0.331,1.0,0.348,0.006
27/06/2023,07:22:17,0.321,1.0,0.353,0.005
27/06/2023,07:23:17,0.310,1.0,0.358,0.005
27/06/2023,07:24:16,0.301,1.0,0.364,0.006
27/06/2023,07:25:17,0.297,1.0,0.369,0.005
27/06/2023,07:26:16,0.300,1.0,0.374,0.005
27/06/2023,07:27:16,0.305,1.0,0.379,0.005
27/06/2023,07:28:17,0.309,1.0,0.384,0.005
27/06/2023,07:29:16,0.307,1.0,0.389,0.005
27/06/2023,07:30:16,0.300,1.0,0.394,0.005
27/06/2023,07:31:16,0.289,1.0,0.399,0.005
27/06/2023,07:32:17,0.280,1.0,0.404,0.005
27/06/2023,07:33:16,0.268,1.0,0.408,0.004
27/06/2023,07:34:17,0.258,1.0,0.413,0.005
27/06/2023,07:35:16,0.248,1.0,0.417,0.004
27/06/2023,07:36:16,0.237,1.0,0.421,0.004
27/06/2023,07:37:16,0.227,1.0,0.425,0.004
27/06/2023,07:38:16,0.218,0.0,0.428,0.003
27/06/2023,07:39:16,0.210,0.0,0.432,0.004
27/06/2023,07:40:17,0.206,0.0,0.435,0.003
27/06/2023,07:41:17,0.205,0.0,0.439,0.004
27/06/2023,07:42:16,0.204,0.0,0.442,0.003
27/06/2023,07:43:16,0.204,0.0,0.446,0.004
27/06/2023,07:44:17,0.206,0.0,0.449,0.003
27/06/2023,07:45:15,0.206,0.0,0.452,0.003
27/06/2023,07:46:16,0.209,0.0,0.456,0.004
27/06/2023,07:47:17,0.214,0.0,0.459,0.003
27/06/2023,07:48:16,0.225,1.0,0.463,0.004
27/06/2023,07:49:17,0.242,1.0,0.467,0.004
27/06/2023,07:50:16,0.259,1.0,0.471,0.004
27/06/2023,07:51:16,0.276,1.0,0.476,0.005
27/06/2023,07:52:17,0.292,1.0,0.48,0.004
27/06/2023,07:53:16,0.302,1.0,0.485,0.005
27/06/2023,07:54:17,0.308,1.0,0.49,0.005
27/06/2023,07:55:16,0.306,1.0,0.495,0.005
27/06/2023,07:56:16,0.302,1.0,0.501,0.006
27/06/2023,07:57:17,0.298,1.0,0.506,0.005
27/06/2023,07:58:16,0.294,1.0,0.51,0.004
27/06/2023,07:59:16,0.293,1.0,0.515,0.005
27/06/2023,08:00:17,0.297,1.0,0.52,0.005
27/06/2023,08:01:16,0.299,1.0,0.525,0.005
27/06/2023,08:02:16,0.301,1.0,0.53,0.005
27/06/2023,08:03:17,0.304,1.0,0.535,0.005
27/06/2023,08:04:16,0.305,1.0,0.54,0.005
27/06/2023,08:05:16,0.309,1.0,0.545,0.005
27/06/2023,08:06:16,0.311,1.0,0.551,0.006
27/06/2023,08:07:17,0.316,1.0,0.556,0.005
27/06/2023,08:08:16,0.322,1.0,0.561,0.005
27/06/2023,08:09:17,0.318,1.0,0.567,0.006
27/06/2023,08:10:17,0.313,1.0,0.572,0.005
27/06/2023,08:11:17,0.304,1.0,0.577,0.005
27/06/2023,08:12:16,0.295,1.0,0.582,0.005
27/06/2023,08:13:17,0.284,1.0,0.587,0.005
27/06/2023,08:14:16,0.273,1.0,0.591,0.004
27/06/2023,08:15:17,0.260,1.0,0.596,0.005
27/06/2023,08:16:17,0.247,1.0,0.6,0.004
27/06/2023,08:17:16,0.238,1.0,0.604,0.004
27/06/2023,08:18:17,0.230,1.0,0.608,0.004
27/06/2023,08:19:16,0.227,1.0,0.612,0.004
27/06/2023,08:20:17,0.228,1.0,0.616,0.004
27/06/2023,08:21:17,0.232,1.0,0.619,0.003
27/06/2023,08:22:17,0.234,1.0,0.623,0.004
27/06/2023,08:23:16,0.232,1.0,0.627,0.004
27/06/2023,08:24:15,0.229,1.0,0.631,0.004
27/06/2023,08:25:16,0.221,1.0,0.635,0.004
27/06/2023,08:26:17,0.218,1.0,0.638,0.003
27/06/2023,08:27:16,0.217,0.0,0.642,0.004
27/06/2023,08:28:18,0.221,1.0,0.646,0.004
27/06/2023,08:29:18,0.230,1.0,0.65,0.004
27/06/2023,08:30:16,0.238,1.0,0.653,0.003
27/06/2023,08:31:17,0.243,1.0,0.657,0.004
27/06/2023,08:32:16,0.248,1.0,0.661,0.004
27/06/2023,08:33:17,0.254,1.0,0.666,0.005
27/06/2023,08:34:16,0.260,1.0,0.67,0.004
27/06/2023,08:35:16,0.263,1.0,0.674,0.004
27/06/2023,08:36:17,0.265,1.0,0.679,0.005
27/06/2023,08:37:17,0.268,1.0,0.683,0.004
27/06/2023,08:38:16,0.270,1.0,0.688,0.005
27/06/2023,08:39:16,0.271,1.0,0.692,0.004
27/06/2023,08:40:16,0.276,1.0,0.697,0.005
27/06/2023,08:41:17,0.287,1.0,0.701,0.004
27/06/2023,08:42:17,0.308,1.0,0.706,0.005
27/06/2023,08:43:17,0.334,1.0,0.712,0.006
27/06/2023,08:44:16,0.363,1.0,0.717,0.005
27/06/2023,08:45:17,0.391,1.0,0.724,0.007
27/06/2023,08:46:17,0.409,1.0,0.73,0.006
27/06/2023,08:47:16,0.422,1.0,0.737,0.007
27/06/2023,08:48:17,0.437,1.0,0.744,0.007
27/06/2023,08:49:16,0.457,1.0,0.752,0.008
27/06/2023,08:50:17,0.479,1.0,0.76,0.008
27/06/2023,08:51:17,0.496,1.0,0.768,0.008
27/06/2023,08:52:16,0.505,1.0,0.776,0.008
27/06/2023,08:53:16,0.524,1.0,0.785,0.009
27/06/2023,08:54:17,0.556,1.0,0.794,0.009
27/06/2023,08:55:17,0.606,1.0,0.803,0.009
27/06/2023,08:56:16,0.663,2.0,0.814,0.011
27/06/2023,08:57:16,0.725,2.0,0.826,0.012
27/06/2023,08:58:17,0.768,2.0,0.838,0.012
27/06/2023,08:59:16,0.796,2.0,0.851,0.013
27/06/2023,09:00:17,0.811,2.0,0.865,0.014
27/06/2023,09:01:16,0.811,2.0,0.878,0.013
27/06/2023,09:02:16,0.832,2.0,0.892,0.014
27/06/2023,09:03:16,0.816,2.0,0.905,0.013
27/06/2023,09:04:16,0.853,2.0,0.919,0.014
27/06/2023,09:05:17,0.863,2.0,0.934,0.015
27/06/2023,09:06:16,0.896,2.0,0.948,0.014
27/06/2023,09:07:17,0.849,2.0,0.963,0.015
27/06/2023,09:08:16,0.766,2.0,0.976,0.013
27/06/2023,09:09:17,0.716,2.0,0.988,0.012
27/06/2023,09:10:16,0.738,2.0,1.001,0.013
27/06/2023,09:11:17,0.744,2.0,1.013,0.012
27/06/2023,09:12:16,0.760,2.0,1.025,0.012
27/06/2023,09:13:17,0.700,2.0,1.038,0.013
27/06/2023,09:14:17,0.618,1.0,1.049,0.011
27/06/2023,09:15:16,0.622,1.0,1.059,0.01
27/06/2023,09:16:17,0.647,1.0,1.07,0.011
27/06/2023,09:17:17,0.606,1.0,1.08,0.01
27/06/2023,09:18:16,0.551,1.0,1.09,0.01
27/06/2023,09:19:16,0.508,1.0,1.098,0.008
27/06/2023,09:20:16,0.460,1.0,1.107,0.009
27/06/2023,09:21:17,0.434,1.0,1.114,0.007
27/06/2023,09:22:17,0.435,1.0,1.121,0.007
27/06/2023,09:23:17,0.423,1.0,1.128,0.007
27/06/2023,09:24:16,0.410,1.0,1.135,0.007
27/06/2023,09:25:17,0.404,1.0,1.142,0.007
27/06/2023,09:26:16,0.387,1.0,1.149,0.007
27/06/2023,09:27:17,0.366,1.0,1.155,0.006
27/06/2023,09:28:16,0.379,1.0,1.161,0.006
27/06/2023,09:29:17,0.439,1.0,1.168,0.007
27/06/2023,09:30:17,0.519,1.0,1.176,0.008
27/06/2023,09:31:16,0.593,1.0,1.185,0.009
27/06/2023,09:32:17,0.640,1.0,1.195,0.01
27/06/2023,09:33:16,0.656,2.0,1.206,0.011
27/06/2023,09:34:16,0.662,2.0,1.217,0.011
27/06/2023,09:35:17,0.696,2.0,1.228,0.011
27/06/2023,09:36:17,0.743,2.0,1.24,0.012
27/06/2023,09:37:16,0.775,2.0,1.253,0.013
27/06/2023,09:38:17,0.797,2.0,1.266,0.013
27/06/2023,09:39:17,0.813,2.0,1.28,0.014
27/06/2023,09:40:18,0.818,2.0,1.294,0.014
27/06/2023,09:41:16,0.794,2.0,1.307,0.013
27/06/2023,09:42:17,0.736,2.0,1.32,0.013
27/06/2023,09:43:16,0.704,2.0,1.332,0.012
27/06/2023,09:44:17,0.697,2.0,1.343,0.011
27/06/2023,09:45:17,0.671,2.0,1.355,0.012
27/06/2023,09:46:16,0.644,1.0,1.366,0.011
27/06/2023,09:47:17,0.624,1.0,1.376,0.01
27/06/2023,09:48:16,0.604,1.0,1.387,0.011
27/06/2023,09:49:17,0.578,1.0,1.396,0.009
27/06/2023,09:50:16,0.565,1.0,1.406,0.01
27/06/2023,09:51:16,0.563,1.0,1.415,0.009
27/06/2023,09:52:17,0.582,1.0,1.425,0.01
27/06/2023,09:53:16,0.616,1.0,1.435,0.01
27/06/2023,09:54:17,0.668,2.0,1.445,0.01
27/06/2023,09:55:16,0.727,2.0,1.457,0.012